Weather History for Marion-Critt Cnty AP, Marion,, KY

Change the Weather History Date:

Wednesday, January 1, 2014

  Actual Average (KPAH) Record (KPAH)
Temperature  
Mean Temperature 36 °F 35 °F  
Max Temperature 45 °F 43 °F 69 °F (1965)
Min Temperature 27 °F 26 °F -2 °F (1968)
Degree Days  
Heating Degree Days 29 30  
Month to date heating degree days 30  
Since 1 July heating degree days 1661  
Cooling Degree Days 0 0  
Month to date cooling degree days 0  
Year to date cooling degree days 0  
Moisture  
Dew Point 28 °F    
Average Humidity 73    
Maximum Humidity 95    
Minimum Humidity 54    
Precipitation  
Precipitation 0.00 in 0.12 in 3.40 in (1966)
Month to date precipitation 0.12  
Year to date precipitation 0.12  
Snow  
Snow 0.00 in 0.10 in 0.50 in (1979)
Month to date snowfall 0.1  
Since 1 July snowfall 2.4  
Snow Depth -    
Sea Level Pressure  
Sea Level Pressure 30.14 in    
Wind  
Wind Speed 4 mph (South)    
Max Wind Speed 9 mph    
Max Gust Speed 16 mph    
Visibility 10 miles    
Events Rain    
T = Trace of Precipitation, MM = Missing Value Source: NWS Daily Summary

Daily Weather History Graph

Daily Weather History Graph

Search for Another Location

Airport:

Trip Planner

Search our weather history database for the weather conditions in past years. The results will help you decide how hot, cold, wet, or windy it might be!

Date:

Astronomy

Jan. 01, 2014 Rise Set
Actual Time 7:06 AM CST 4:45 PM CST
Civil Twilight 6:37 AM CST 5:14 PM CST
Nautical Twilight 6:05 AM CST 5:47 PM CST
Astronomical Twilight 5:33 AM CST 6:19 PM CST
Moon 6:58 AM CST (1/1) 5:28 PM CST (1/1)
Length of Visible Light 10h 37m
Length of Day
9h 38m
New Moon, 0% of the Moon is Illuminated
Jan 1
New Moon
Jan 7
First Quarter
Jan 15
Full
Jan 23
Last Quarter
Jan 30
New

Hourly Weather History & Observations

Time (CST) Temp. Windchill Dew Point Humidity Pressure Visibility Wind Dir Wind Speed Gust Speed Precip Events Conditions
12:15 AM 32.4 °F 29.1 °F 25.2 °F 75% 30.27 in 10.0 mi SSW 3.5 mph - N/A   Clear
12:35 AM 32.0 °F 27.5 °F 25.3 °F 76% 30.27 in 10.0 mi SSW 4.6 mph - N/A   Clear
12:55 AM 32.2 °F 28.9 °F 25.5 °F 76% 30.27 in 10.0 mi SW 3.5 mph - N/A   Clear
1:15 AM 32.2 °F - 25.5 °F 76% 30.27 in 10.0 mi Calm Calm - N/A   Clear
1:35 AM 32.0 °F 28.7 °F 25.3 °F 76% 30.27 in 10.0 mi SW 3.5 mph - N/A   Clear
1:55 AM 32.0 °F 27.5 °F 25.5 °F 77% 30.27 in 10.0 mi SW 4.6 mph - N/A   Clear
2:15 AM 32.0 °F 28.7 °F 25.3 °F 76% 30.28 in 10.0 mi SW 3.5 mph - N/A   Clear
2:35 AM 29.7 °F 26.1 °F 24.8 °F 82% 30.27 in 10.0 mi SSW 3.5 mph - N/A   Clear
2:55 AM 29.5 °F 25.9 °F 25.3 °F 85% 30.26 in 10.0 mi SSW 3.5 mph - N/A   Clear
3:15 AM 29.3 °F 25.6 °F 25.2 °F 85% 30.26 in 10.0 mi South 3.5 mph - N/A   Clear
3:35 AM 27.7 °F 22.4 °F 24.6 °F 88% 30.25 in 10.0 mi South 4.6 mph - N/A   Clear
3:55 AM 29.3 °F 25.6 °F 25.5 °F 86% 30.25 in 10.0 mi SSW 3.5 mph - N/A   Clear
4:15 AM 28.9 °F 25.2 °F 25.7 °F 88% 30.24 in 10.0 mi South 3.5 mph - N/A   Clear
4:35 AM 28.2 °F 24.4 °F 25.3 °F 89% 30.24 in 10.0 mi South 3.5 mph - N/A   Clear
4:55 AM 27.9 °F 21.5 °F 25.5 °F 91% 30.23 in 10.0 mi South 5.8 mph - N/A   Clear
5:15 AM 27.9 °F 21.5 °F 25.0 °F 89% 30.22 in 10.0 mi South 5.8 mph - N/A   Clear
5:35 AM 29.7 °F 23.7 °F 26.6 °F 88% 30.23 in 10.0 mi SSW 5.8 mph - N/A   Clear
5:55 AM 29.3 °F 23.2 °F 26.2 °F 88% 30.23 in 10.0 mi SSW 5.8 mph - N/A   Clear
6:15 AM 27.1 °F 19.7 °F 25.3 °F 93% 30.22 in 10.0 mi South 6.9 mph - N/A   Clear
6:35 AM 28.9 °F 21.9 °F 26.6 °F 91% 30.22 in 10.0 mi South 6.9 mph - N/A   Clear
6:55 AM 29.7 °F 22.0 °F 26.6 °F 88% 30.22 in 10.0 mi South 8.1 mph - N/A   Clear
7:15 AM 29.8 °F 22.2 °F 26.8 °F 88% 30.22 in 10.0 mi SSW 8.1 mph - N/A   Clear
7:35 AM 29.8 °F 23.9 °F 27.3 °F 90% 30.22 in 10.0 mi South 5.8 mph - N/A   Clear
7:55 AM 30.6 °F 23.1 °F 27.5 °F 88% 30.22 in 10.0 mi SSW 8.1 mph - N/A   Clear
8:15 AM 30.9 °F 24.3 °F 28.0 °F 89% 30.22 in 10.0 mi SSW 6.9 mph - N/A   Clear
8:35 AM 32.0 °F 26.4 °F 28.4 °F 87% 30.23 in 10.0 mi SSW 5.8 mph - N/A   Clear
8:55 AM 33.3 °F 27.9 °F 28.8 °F 84% 30.23 in 10.0 mi SSW 5.8 mph - N/A   Clear
9:15 AM 34.7 °F 28.8 °F 29.3 °F 81% 30.23 in 10.0 mi SSW 6.9 mph - N/A   Clear
9:35 AM 35.8 °F 29.4 °F 29.3 °F 77% 30.24 in 10.0 mi SSW 8.1 mph - N/A   Clear
9:55 AM 37.2 °F 31.9 °F 29.8 °F 75% 30.23 in 10.0 mi SSW 6.9 mph - N/A   Clear
10:15 AM 38.7 °F 32.9 °F 29.5 °F 70% 30.22 in 10.0 mi SSW 8.1 mph - N/A   Clear
10:35 AM 40.3 °F 37.1 °F 29.8 °F 66% 30.21 in 10.0 mi South 4.6 mph - N/A   Clear
10:55 AM 41.0 °F 38.0 °F 29.3 °F 63% 30.20 in 10.0 mi South 4.6 mph - N/A   Clear
11:15 AM 41.9 °F 37.5 °F 29.1 °F 61% 30.19 in 10.0 mi SSW 6.9 mph - N/A   Clear
11:35 AM 42.8 °F 38.0 °F 29.5 °F 59% 30.18 in 10.0 mi South 8.1 mph - N/A   Clear
11:55 AM 43.3 °F 38.6 °F 29.3 °F 58% 30.17 in 10.0 mi South 8.1 mph 16.1 mph N/A   Clear
12:15 PM 44.1 °F 40.1 °F 30.0 °F 58% 30.16 in 10.0 mi South 6.9 mph - N/A   Clear
12:35 PM 45.1 °F 42.0 °F 29.8 °F 55% 30.14 in 10.0 mi SSW 5.8 mph - N/A   Clear
12:55 PM 43.7 °F 41.1 °F 29.8 °F 58% 30.13 in 10.0 mi South 4.6 mph - N/A   Clear
1:15 PM 43.7 °F 40.3 °F 29.7 °F 58% 30.12 in 10.0 mi South 5.8 mph - N/A   Clear
1:35 PM 43.7 °F 39.7 °F 29.5 °F 57% 30.11 in 10.0 mi South 6.9 mph - N/A   Clear
1:55 PM 43.7 °F 39.7 °F 28.9 °F 56% 30.10 in 10.0 mi South 6.9 mph - N/A   Clear
2:15 PM 43.9 °F 39.3 °F 28.0 °F 54% 30.09 in 10.0 mi South 8.1 mph - N/A   Clear
2:35 PM 43.9 °F 39.9 °F 29.8 °F 58% 30.09 in 10.0 mi South 6.9 mph - N/A   Clear
2:55 PM 45.0 °F 41.2 °F 30.0 °F 56% 30.09 in 10.0 mi South 6.9 mph - N/A   Clear
3:15 PM 45.3 °F 40.6 °F 29.3 °F 54% 30.08 in 10.0 mi South 9.2 mph - N/A   Clear
3:35 PM 43.7 °F 42.1 °F 28.4 °F 55% 30.07 in 10.0 mi SSE 3.5 mph - N/A   Clear
3:55 PM 43.7 °F - 28.4 °F 55% 30.08 in 10.0 mi Calm Calm - N/A   Clear
4:15 PM 43.3 °F - 28.4 °F 56% 30.06 in 10.0 mi Calm Calm - N/A   Clear
4:35 PM 42.4 °F 40.7 °F 28.4 °F 58% 30.05 in 10.0 mi SE 3.5 mph - N/A   Clear
4:55 PM 40.3 °F 37.1 °F 28.6 °F 63% 30.05 in 10.0 mi SE 4.6 mph - N/A   Clear
5:15 PM 40.5 °F - 28.6 °F 63% 30.05 in 10.0 mi Calm Calm - N/A   Clear
5:35 PM 40.1 °F 36.9 °F 28.2 °F 63% 30.04 in 10.0 mi SE 4.6 mph - N/A   Clear
5:55 PM 40.3 °F 37.1 °F 27.9 °F 61% 30.04 in 10.0 mi SE 4.6 mph - N/A   Clear
6:15 PM 40.5 °F 37.3 °F 27.3 °F 59% 30.03 in 10.0 mi SE 4.6 mph - N/A   Clear
6:35 PM 40.1 °F - 27.3 °F 60% 30.03 in 10.0 mi Calm Calm - N/A   Clear
6:55 PM 40.1 °F 36.9 °F 26.8 °F 59% 30.03 in 10.0 mi SE 4.6 mph - N/A   Clear
7:15 PM 40.3 °F 38.2 °F 26.4 °F 58% 30.02 in 10.0 mi ESE 3.5 mph - N/A   Clear
7:35 PM 38.3 °F 33.9 °F 27.7 °F 66% 30.00 in 10.0 mi East 5.8 mph - N/A   Scattered Clouds
7:55 PM 39.2 °F 35.0 °F 27.5 °F 63% 30.00 in 10.0 mi ESE 5.8 mph - N/A   Mostly Cloudy
8:15 PM 40.3 °F - 26.8 °F 59% 30.01 in 10.0 mi Calm Calm - N/A   Overcast
8:35 PM 39.9 °F - 27.7 °F 62% 30.00 in 10.0 mi Calm Calm - N/A   Overcast
8:55 PM 40.1 °F - 28.2 °F 63% 30.00 in 10.0 mi Calm Calm - N/A Rain Light Rain
9:15 PM 39.2 °F 35.9 °F 31.5 °F 74% 29.97 in 10.0 mi SE 4.6 mph - N/A Rain Light Rain
9:35 PM 38.3 °F 34.8 °F 32.0 °F 78% 29.96 in 10.0 mi SE 4.6 mph - N/A   Overcast
9:55 PM 38.5 °F - 33.6 °F 83% 29.97 in 10.0 mi Calm Calm - N/A   Overcast
10:15 PM 38.5 °F - 33.3 °F 81% 29.97 in 10.0 mi Calm Calm - N/A Rain Light Rain
10:35 PM 38.3 °F - 33.3 °F 82% 29.99 in 10.0 mi Calm Calm - N/A Rain Rain
10:55 PM 37.9 °F - 34.0 °F 86% 29.98 in 10.0 mi Calm Calm - N/A Rain Light Rain
11:15 PM 36.9 °F - 35.2 °F 94% 29.97 in 10.0 mi Calm Calm - N/A Rain Light Rain
11:35 PM 36.5 °F - 35.2 °F 95% 29.96 in 7.0 mi Calm Calm - N/A Rain Rain
11:55 PM 36.5 °F 33.9 °F 34.7 °F 93% 29.95 in 10.0 mi ENE 3.5 mph - N/A   Light Drizzle